Change the Weather History Date:

Saturday, November 12, 2011

  Actual Average Record
Temperature  
Mean Temperature 47 °F -  
Max Temperature 59 °F 46 °F 69 °F (1964)
Min Temperature 35 °F 33 °F 20 °F (1979)
Degree Days  
Heating Degree Days 18    
Moisture  
Dew Point 34 °F    
Average Humidity 58    
Maximum Humidity 75    
Minimum Humidity 46    
Precipitation  
Precipitation 0.00 in - - ()
Sea Level Pressure  
Sea Level Pressure 29.85 in    
Wind  
Wind Speed 12 mph (SW)    
Max Wind Speed 16 mph    
Max Gust Speed 26 mph    
Visibility 10 miles    
Events      
Averages and records for this station are not official NWS values.
T = Trace of Precipitation, MM = Missing Value Source: NWS Daily Summary

Daily Weather History Graph

Daily Weather History Graph

Search for Another Location

Airport or City:

Trip Planner

Search our weather history database for the weather conditions in past years. The results will help you decide how hot, cold, wet, or windy it might be!

Date:

Astronomy

Nov. 12, 2011 Rise Set
Actual Time 7:18 AM EST 5:12 PM EST
Civil Twilight 6:48 AM EST 5:42 PM EST
Nautical Twilight 6:15 AM EST 6:16 PM EST
Astronomical Twilight 5:41 AM EST 6:49 PM EST
Moon 6:25 PM EST (11/12) 9:02 AM EST (11/12)
Length of Visible Light 10h 54m
Length of Day
9h 54m
Full, 97% of the Moon is Illuminated
Nov 12
Full
Nov 18
Last Quarter
Nov 25
New
Dec 2
First Quarter
Dec 10
Full

Hourly Weather History & Observations

Time (EST) Temp. Windchill Dew Point Humidity Pressure Visibility Wind Dir Wind Speed Gust Speed Precip Events Conditions
12:53 AM 39.0 °F 32.3 °F 27.0 °F 62% 29.85 in 10.0 mi SSW 10.4 mph - N/A   Clear
1:53 AM 39.9 °F 33.9 °F 28.0 °F 63% 29.82 in 10.0 mi SSW 9.2 mph - N/A   Clear
2:53 AM 41.0 °F 33.5 °F 28.0 °F 60% 29.81 in 10.0 mi SW 13.8 mph 20.7 mph N/A   Clear
3:53 AM 39.0 °F 31.0 °F 27.0 °F 62% 29.80 in 10.0 mi SW 13.8 mph - N/A   Clear
4:53 AM 37.9 °F 31.5 °F 27.0 °F 65% 29.81 in 10.0 mi SW 9.2 mph - N/A   Clear
5:53 AM 37.0 °F 30.4 °F 28.0 °F 70% 29.83 in 10.0 mi WSW 9.2 mph - N/A   Clear
6:53 AM 35.6 °F 28.6 °F 28.4 °F 75% 29.82 in 10.0 mi WSW 9.2 mph - N/A   Clear
7:53 AM 37.0 °F 29.3 °F 28.9 °F 73% 29.85 in 10.0 mi WSW 11.5 mph - N/A   Clear
8:53 AM 39.9 °F 34.5 °F 32.0 °F 73% 29.86 in 10.0 mi WSW 8.1 mph - N/A   Clear
9:53 AM 45.0 °F 40.1 °F 34.0 °F 65% 29.87 in 10.0 mi SW 9.2 mph 19.6 mph N/A   Clear
10:53 AM 48.9 °F - 35.1 °F 59% 29.89 in 10.0 mi WSW 12.7 mph - N/A   Clear
11:53 AM 53.1 °F - 37.0 °F 55% 29.88 in 10.0 mi SW 11.5 mph - N/A   Clear
12:53 PM 55.9 °F - 37.9 °F 51% 29.86 in 10.0 mi SW 13.8 mph - N/A   Clear
1:53 PM 59.0 °F - 39.0 °F 48% 29.86 in 10.0 mi SW 15.0 mph 26.5 mph N/A   Clear
2:53 PM 59.0 °F - 37.9 °F 46% 29.85 in 10.0 mi SW 16.1 mph 25.3 mph N/A   Clear
3:53 PM 57.9 °F - 37.9 °F 47% 29.86 in 10.0 mi SW 16.1 mph 23.0 mph N/A   Clear
4:53 PM 57.0 °F - 37.9 °F 49% 29.87 in 10.0 mi SW 16.1 mph 21.9 mph N/A   Clear
5:53 PM 54.0 °F - 37.0 °F 53% 29.88 in 10.0 mi SSW 8.1 mph - N/A   Clear
6:53 PM 54.0 °F - 37.9 °F 55% 29.88 in 10.0 mi SSW 9.2 mph - N/A   Clear
7:53 PM 53.1 °F - 39.0 °F 59% 29.87 in 10.0 mi South 11.5 mph - N/A   Clear
8:53 PM 53.1 °F - 37.0 °F 55% 29.86 in 10.0 mi SSW 15.0 mph - N/A   Clear
9:53 PM 53.1 °F - 36.0 °F 52% 29.84 in 10.0 mi SSW 13.8 mph 21.9 mph N/A   Clear
10:53 PM 52.0 °F - 36.0 °F 54% 29.83 in 10.0 mi SSW 16.1 mph 23.0 mph N/A   Clear
11:53 PM 53.1 °F - 35.1 °F 50% 29.81 in 10.0 mi SSW 15.0 mph 23.0 mph N/A   Clear